Weather History for KDAN - September, 2013

Change the Weather History Date:

Tuesday, September 17, 2013

  Actual Average Record
Temperature  
Mean Temperature 63 °F 70 °F  
Max Temperature 75 °F 79 °F 98 °F (1954)
Min Temperature 51 °F 60 °F 44 °F (1966)
Degree Days  
Heating Degree Days 2 1  
Month to date heating degree days 3 4  
Since 1 July heating degree days 3 4  
Cooling Degree Days 0 5  
Month to date cooling degree days 141 128  
Year to date cooling degree days 1349 1355  
Growing Degree Days 12 (Base 50)    
Moisture  
Dew Point 52 °F    
Average Humidity 70    
Maximum Humidity 96    
Minimum Humidity 44    
Precipitation  
Precipitation 0.00 in 0.13 in 2.10 in (2004)
Month to date precipitation 0.24 2.28  
Year to date precipitation 41.55 32.57  
Snow  
Snow 0.00 in - - ()
Month to date snowfall 0.0  
Since 1 July snowfall 0.0  
Since 1 September snowfall 0.0  
Snow Depth 0.00 in    
Sea Level Pressure  
Sea Level Pressure 30.28 in    
Wind  
Wind Speed 6 mph (NE)    
Max Wind Speed 14 mph    
Max Gust Speed 20 mph    
Visibility 10 miles    
Events      
T = Trace of Precipitation, MM = Missing Value Source: NWS Daily Summary

Daily Weather History Graph

Daily Weather History Graph

Search for Another Location

Airport or City:

Trip Planner

Search our weather history database for the weather conditions in past years. The results will help you decide how hot, cold, wet, or windy it might be!

Date:

Astronomy

Sep. 17, 2013 Rise Set
Actual Time 7:01 AM EDT 7:21 PM EDT
Civil Twilight 6:35 AM EDT 7:47 PM EDT
Nautical Twilight 6:05 AM EDT 8:17 PM EDT
Astronomical Twilight 5:34 AM EDT 8:48 PM EDT
Moon 6:06 PM EDT (9/17) 4:56 AM EDT (9/17)
Length of Visible Light 13h 11m
Length of Day
12h 20m
Waxing Gibbous, 96% of the Moon is Illuminated
Sep 17
Waxing Gibbous
Sep 19
Full
Sep 26
Last Quarter
Oct 4
New
Oct 11
First Quarter

Hourly Weather History & Observations

Time (EDT) Temp. Dew Point Humidity Pressure Visibility Wind Dir Wind Speed Gust Speed Precip Events Conditions
12:53 AM 61.0 °F 55.9 °F 83% 30.22 in 10.0 mi NNE 3.5 mph - N/A   Clear
1:53 AM 57.9 °F 54.0 °F 87% 30.22 in 10.0 mi NNE 4.6 mph - N/A   Partly Cloudy
2:53 AM 59.0 °F 55.0 °F 87% 30.23 in 10.0 mi North 3.5 mph - N/A   Scattered Clouds
3:53 AM 57.0 °F 53.1 °F 87% 30.23 in 10.0 mi North 3.5 mph - N/A   Clear
4:53 AM 54.0 °F 52.0 °F 93% 30.24 in 10.0 mi Calm Calm - N/A   Clear
5:53 AM 52.0 °F 50.0 °F 93% 30.26 in 9.0 mi Calm Calm - N/A   Clear
6:53 AM 52.0 °F 48.9 °F 89% 30.28 in 6.0 mi Calm Calm - N/A   Clear
7:53 AM 57.0 °F 52.0 °F 83% 30.30 in 10.0 mi NE 5.8 mph - N/A   Clear
8:53 AM 61.0 °F 53.1 °F 75% 30.32 in 10.0 mi ENE 10.4 mph - N/A   Clear
9:53 AM 64.9 °F 54.0 °F 68% 30.34 in 10.0 mi NE 11.5 mph 17.3 mph N/A   Clear
10:53 AM 66.0 °F 54.0 °F 65% 30.36 in 10.0 mi East 5.8 mph - N/A   Partly Cloudy
11:53 AM 69.1 °F 54.0 °F 58% 30.35 in 10.0 mi NE 10.4 mph - N/A   Partly Cloudy
12:53 PM 72.0 °F 54.0 °F 53% 30.33 in 10.0 mi NE 11.5 mph - N/A   Partly Cloudy
1:53 PM 73.0 °F 53.1 °F 49% 30.31 in 10.0 mi ENE 9.2 mph 16.1 mph N/A   Partly Cloudy
2:53 PM 73.0 °F 50.0 °F 44% 30.29 in 10.0 mi NE 8.1 mph - N/A   Scattered Clouds
3:53 PM 73.9 °F 51.1 °F 45% 30.27 in 10.0 mi ENE 9.2 mph - N/A   Partly Cloudy
4:53 PM 71.1 °F 48.9 °F 45% 30.26 in 10.0 mi ENE 6.9 mph - N/A   Mostly Cloudy
5:53 PM 70.0 °F 50.0 °F 49% 30.26 in 10.0 mi NE 6.9 mph - N/A   Scattered Clouds
6:53 PM 69.1 °F 50.0 °F 51% 30.26 in 10.0 mi ENE 6.9 mph - N/A   Clear
7:53 PM 62.1 °F 51.1 °F 67% 30.27 in 10.0 mi NE 4.6 mph - N/A   Clear
8:53 PM 61.0 °F 51.1 °F 70% 30.27 in 10.0 mi NE 8.1 mph - N/A   Clear
9:53 PM 61.0 °F 50.0 °F 67% 30.29 in 10.0 mi ENE 6.9 mph - N/A   Clear
10:53 PM 59.0 °F 50.0 °F 72% 30.30 in 10.0 mi ENE 6.9 mph - N/A   Clear
11:53 PM 57.0 °F 48.9 °F 74% 30.31 in 10.0 mi East 3.5 mph - N/A   Clear